Location: Doussal
(55.6167°N, 116.8333°W)
Time: 03:43:58
(UTC+00:00)

METEOR M2 - Pass Details

Date: 09 December 2023
Orbit: 818 x 826 km, 98.4° (Epoch: 25 February)

Event Time Altitude Azimuth Distance (km) Brightness Sun altitude
Rises 12:01:44 0° 26° (NNE) 3,374 ? -32.4°
Reaches altitude 10° 12:05:29 10° 53° (NE) 2,432 ? -31.9°
Maximum altitude 12:08:03 13° 82° (E) 2,191 ? -31.5°
Drops below altitude 10° 12:10:36 10° 111° (ESE) 2,422 ? -31.1°
Sets 12:14:18 0° 137° (SE) 3,346 ? -30.6°
